Weather in Singul-Tatarskiy

Russia / Tyumen Oblast     56°35′26″N   66°01′54″E
temp.,
°C
wind,
m/s
gust,
m/s
humid.,
%
clouds,
%
prec.,
mm/h
press.,
hPa
HPBL,
m
25 february, thu
thu2523:00−20nne71391100 0.8 1015868
02:00−22n71292100 0.1 1016721
05:00−24n61193100 0.3 1018564
08:00−27nnw51193100 0.0 1020374
11:00−26nnw599388 0.0 1023343
14:00−22nnw489185 0.0 1023417
17:00−22nw369493 0.0 1025276
20:00−25nw2397100 0.0 102650
26 february, fri
fri2623:00−25wnw2398100 0.1 102839
02:00−27w229987 0.0 102819
05:00−28wsw229978 0.0 102919
08:00−29sw129917 0.0 103019
11:00−24ssw239330 0.0 1030206
14:00−20s238985 0.0 1030336
17:00−21sse249690 0.0 1030115
20:00−24s359770 0.0 102978
27 february, sat
sat2723:00−27s359640 0.0 102983
02:00−29s35960 0.0 102987
05:00−30sse359718 0.0 102878
08:00−31sse379753 0.0 1028138
11:00−26sse479332 0.0 1027297
14:00−21se48900 0.0 1025363
17:00−21se510907 0.0 1023376
20:00−21se5129392 0.0 1021415
28 february, sun
sun2823:00−19se5109796 0.3 1018405
02:00−18ese51096100 0.6 1015414
05:00−15ese51195100 1.1 1014444
08:00−13ese51194100 0.4 1012443
11:00−10ese5993100 0.9 1011506
14:00−8e5893100 0.6 1010571
17:00−8e4794100 1.3 1009529
20:00−10ne4895100 0.5 1009318
1 march, mon
mon123:00−11ne4795100 1.1 1010308
02:00−13nne369599 0.3 1010197
05:00−15nne369595 0.4 1012208
08:00−16n369695 0.1 1013201
11:00−15n349597 0.1 1014250
14:00−13nnw2391100 0.0 1014329
17:00−14nnw1194100 0.0 101421
20:00−18wsw119995 0.0 101320